[[{"header":{"parameterUnit":"m.s-1","parameterCategory":1,"la1":30.2991,"la2":30.254,"lo1":-89.0895,"lo2":-89.0444,"dy":0.0017,"dx":0.0017,"nx":28,"ny":28,"refTime":"2023-10-16T03:00:00:Z","depth":0,"parameterNumber":2,"parameterNumberName":"U-component_of_WINDS"},"data":[0,0,0,0,0,0,0,0,0,0,0,0,0,0,0,0,0,0,0,0,0,0,0,0,0,0,0,0,0,0,0,0,0,0,0,0,0,0,0,0,0,0,0,0,0,0,0,0,0,0,0,0,0,0,0,0,0,0,2.7663,2.7663,0,2.7672,2.7672,2.7672,2.7637,2.7636,2.7634,2.7634,2.7641,2.7642,2.7643,0,0,0,0,0,0,0,0,0,0,0,0,0,2.7617,2.7618,2.7663,2.7663,2.7663,2.7672,2.7672,2.7672,2.7637,2.7635,2.7634,2.7633,2.7641,2.7642,2.7643,0,0,0,0,0,0,0,0,0,0,0,0,0,2.7632,2.7618,2.7663,2.7647,2.7646,2.7672,2.7672,2.7672,2.7637,2.7635,2.7634,2.7632,2.764,2.7642,2.7644,2.7685,0,0,2.7649,2.765,0,0,0,0,0,0,0,0,2.7632,2.7634,2.7649,2.7648,2.7647,2.7651,2.7658,2.7676,2.7637,2.764,2.7633,2.7632,2.7646,2.7647,2.7652,2.7686,2.7686,2.7649,2.765,2.7651,2.7651,0,0,0,0,0,0,0,2.763,2.7634,2.7666,2.7649,2.7648,2.7639,2.764,2.7661,2.7651,2.764,2.7637,2.7639,2.7645,2.765,2.7652,2.7686,2.7649,2.7651,2.7652,2.7652,2.7755,2.7757,0,0,0,0,0,0,2.7632,2.7633,2.7666,2.7667,2.7635,2.7641,2.7642,2.7651,2.7651,2.765,2.764,2.7637,2.7648,2.765,2.7652,2.7701,2.7651,2.7653,2.7654,2.7754,2.7756,2.7758,0,0,0,0,0,0,2.7631,2.7635,2.7666,2.7649,2.7652,2.7644,2.7655,2.7652,2.7658,2.7651,2.7649,2.7648,2.7647,2.7649,2.7678,2.77,2.7653,2.7655,2.7752,2.7754,2.7757,2.7798,0,0,0,0,0,0,2.763,2.7635,2.765,2.765,2.7653,2.7691,2.7656,2.7654,2.7661,2.7657,2.7658,2.7656,2.7646,2.7675,2.7679,2.7702,2.7656,2.775,2.7753,2.7756,2.7795,2.7802,2.7808,0,0,0,0,0,2.7628,2.7661,2.7651,2.7655,2.7673,2.7693,2.7695,2.7682,2.7663,2.7679,2.7675,2.7656,2.7698,2.7678,2.7683,2.7706,2.7748,2.7752,2.7756,2.7792,2.7801,2.7808,0,0,0,0,0,0,2.7664,2.7661,2.765,2.7684,2.7689,2.7687,2.7706,2.7692,2.7702,2.7698,2.7682,2.7682,2.7713,2.7713,2.7691,2.7747,2.772,2.7724,2.7746,2.7754,2.776,2.7759,2.7658,0,0,0,0,0,2.7676,2.7693,2.7689,2.7719,2.7723,2.7714,2.7722,2.7712,2.7717,2.7719,2.7717,2.7722,2.7736,2.7745,2.7758,2.7796,2.7795,2.7814,2.7821,2.7826,2.783,2.785,2.7859,2.777,2.777,2.777,0,0,2.77,2.7701,2.7712,2.7727,2.7729,2.7747,2.7716,2.7736,2.7748,2.7721,2.7748,2.7747,2.7751,2.7785,2.7799,2.7785,2.7855,2.7831,2.7835,2.7836,2.7855,2.7863,2.7871,2.7773,2.7772,2.7772,0,0,2.7754,2.7756,2.7782,2.7786,2.7791,2.7785,2.7792,2.7792,2.7791,2.7817,2.7798,2.7813,2.7838,2.7842,2.7847,2.7905,2.7888,2.7909,2.7943,2.7963,2.797,2.7976,2.7996,2.8004,2.7914,2.7914,2.7914,0,2.7783,2.7809,2.7797,2.7818,2.7825,2.7803,2.7829,2.7833,2.7842,2.7848,2.7832,2.7863,2.7865,2.7899,2.7913,2.7919,2.7925,2.7908,2.797,2.7976,2.7982,2.8,2.8008,2.7916,2.7916,2.7916,2.7915,0,2.7845,2.7864,2.7884,2.7894,2.7903,2.7927,2.7918,2.793,2.792,2.7916,2.7944,2.7945,2.7958,2.7966,2.7956,2.7999,2.799,2.7973,2.7945,2.7993,2.801,2.8017,2.792,2.7919,2.7918,2.7918,0,0,2.7918,2.7923,2.7931,2.7935,2.794,2.7954,2.7978,2.7991,2.8,2.8008,2.8027,2.8049,2.8034,2.804,2.8031,2.8049,2.8094,2.8029,2.8029,2.8041,2.8141,2.8153,2.8161,2.8084,2.8086,2.8087,2.814,0,2.797,2.801,2.8001,2.804,2.8057,2.8037,2.8057,2.8063,2.8061,2.8075,2.8072,2.8088,2.8067,2.8071,2.8088,2.8085,2.8114,2.8081,2.8101,2.8102,2.8098,2.8171,2.8183,2.8233,2.8147,2.8148,2.8149,0,2.8035,2.8046,2.8087,2.8091,2.8097,2.8116,2.8128,2.8142,2.8148,2.8145,2.8153,2.8141,2.8164,2.8138,2.8169,2.8147,2.8155,2.8156,2.8157,2.8157,2.8127,2.8171,2.8249,2.8256,2.816,2.8159,2.8158,0,2.8083,2.8109,2.8137,2.8141,2.8146,2.816,2.8162,2.8167,2.8176,2.8187,2.8193,2.8206,2.8213,2.8224,2.8215,2.8197,2.8248,2.8221,2.8246,2.8246,2.8256,2.8255,2.8335,2.8264,2.8264,2.8264,2.8263,0,2.8141,2.8167,2.8159,2.8175,2.8204,2.8194,2.8222,2.8223,2.8228,2.8245,2.8229,2.8245,2.8234,2.825,2.8244,2.8271,2.8274,2.8272,2.827,2.8273,2.8273,2.8276,2.8272,2.8266,2.8265,2.8265,2.8264,0,2.8199,2.8194,2.8223,2.8227,2.8228,2.8249,2.8252,2.8268,2.8265,2.8287,2.8291,2.8288,2.8305,2.8299,2.8317,2.8313,2.8347,2.8341,2.8345,2.8343,2.8368,2.8365,2.8451,2.8462,2.8385,2.8386,2.8387,0,2.8235,2.8254,2.826,2.8271,2.8275,2.8292,2.8301,2.8293,2.8303,2.8313,2.8328,2.8344,2.8357,2.8386,2.8384,2.8398,2.8392,2.8421,2.8393,2.8396,2.8391,2.8389,2.8391,2.8426,2.8427,2.8427,2.8428,0,2.8299,2.8297,2.8311,2.8325,2.8337,2.8348,2.8357,2.8367,2.8359,2.8372,2.839,2.84,2.8419,2.8436,2.8449,2.8451,2.8438,2.8437,2.8443,2.8445,2.8446,2.8445,2.8358,2.8435,2.8434,2.8433,2.8433,2.8433,2.8346,2.8363,2.837,2.8387,2.8393,2.8403,2.8418,2.8419,2.8434,2.8449,2.8444,2.8465,2.8472,2.8488,2.8493,2.8509,2.8498,2.8507,2.8509,2.8511,2.8514,2.8446,2.8512,2.8511,2.8511,2.8511,2.8511,0,2.8409,2.8413,2.8429,2.8443,2.8457,2.8445,2.8455,2.8467,2.8486,2.8494,2.8507,2.8528,2.8544,2.8545,2.8561,2.8573,2.8568,2.8577,2.8575,2.8576,2.8524,2.8516,2.8582,2.8582,2.8582,2.8582,2.8582,2.8582,2.8443,2.847,2.8469,2.85,2.8504,2.8524,2.8531,2.854,2.8547,2.8571,2.8585,2.8586,2.8591,2.8607,2.8622,2.8622,2.8627,2.8639,2.8637,2.8587,2.858,2.8573,2.8566,2.8641,2.8641,2.8688,2.8688,2.8688]},{"header":{"parameterUnit":"m.s-1","parameterCategory":1,"la1":30.2991,"la2":30.254,"lo1":-89.0895,"lo2":-89.0444,"dy":0.0017,"dx":0.0017,"nx":28,"ny":28,"refTime":"2023-10-16T03:00:00:Z","depth":0,"parameterNumber":3,"parameterNumberName":"V-component_of_WINDS"},"data":[0,0,0,0,0,0,0,0,0,0,0,0,0,0,0,0,0,0,0,0,0,0,0,0,0,0,0,0,0,0,0,0,0,0,0,0,0,0,0,0,0,0,0,0,0,0,0,0,0,0,0,0,0,0,0,0,0,0,-6.8431,-6.8433,0,-6.8629,-6.8631,-6.8634,-6.8556,-6.8551,-6.8546,-6.8542,-6.8739,-6.8748,-6.8757,0,0,0,0,0,0,0,0,0,0,0,0,0,-6.7979,-6.7988,-6.8431,-6.8433,-6.8436,-6.8629,-6.8632,-6.8634,-6.8556,-6.8551,-6.8545,-6.854,-6.8735,-6.8747,-6.8758,0,0,0,0,0,0,0,0,0,0,0,0,0,-6.8176,-6.7991,-6.843,-6.842,-6.8421,-6.8628,-6.8632,-6.8635,-6.8558,-6.8551,-6.8544,-6.8537,-6.8732,-6.8746,-6.876,-6.8986,0,0,-6.8803,-6.881,0,0,0,0,0,0,0,0,-6.8165,-6.8193,-6.8419,-6.8421,-6.8423,-6.8561,-6.8544,-6.8752,-6.8559,-6.8506,-6.8542,-6.8534,-6.8685,-6.8702,-6.8754,-6.8995,-6.9004,-6.8805,-6.8813,-6.8819,-6.8823,0,0,0,0,0,0,0,-6.8151,-6.8184,-6.8509,-6.8423,-6.8425,-6.8404,-6.8424,-6.8583,-6.8631,-6.851,-6.8505,-6.853,-6.8684,-6.8741,-6.8758,-6.9007,-6.8804,-6.8817,-6.8826,-6.8831,-6.9444,-6.9452,0,0,0,0,0,0,-6.8138,-6.8173,-6.8503,-6.8515,-6.8275,-6.8418,-6.8441,-6.8523,-6.8629,-6.8639,-6.8535,-6.8525,-6.872,-6.8742,-6.8765,-6.9039,-6.8819,-6.8833,-6.8841,-6.9437,-6.9446,-6.9454,0,0,0,0,0,0,-6.8129,-6.8168,-6.8495,-6.8343,-6.8383,-6.8433,-6.8527,-6.8531,-6.8588,-6.8649,-6.8656,-6.8585,-6.8715,-6.8745,-6.8933,-6.9044,-6.8839,-6.8852,-6.9427,-6.9439,-6.945,-6.9587,0,0,0,0,0,0,-6.8116,-6.8165,-6.8253,-6.8345,-6.8391,-6.8661,-6.8533,-6.854,-6.8613,-6.8602,-6.8697,-6.8706,-6.8712,-6.8912,-6.8947,-6.906,-6.8863,-6.9418,-6.9433,-6.9446,-6.9573,-6.9602,-6.9627,0,0,0,0,0,-6.81,-6.8282,-6.8258,-6.8298,-6.8503,-6.8668,-6.8694,-6.8699,-6.8623,-6.8711,-6.875,-6.8703,-6.9026,-6.8932,-6.897,-6.909,-6.9411,-6.9428,-6.9445,-6.9561,-6.9596,-6.9626,0,0,0,0,0,0,-6.8199,-6.8294,-6.8268,-6.8486,-6.857,-6.8654,-6.8766,-6.8736,-6.8841,-6.8826,-6.8825,-6.8848,-6.9042,-6.9084,-6.8977,-6.9315,-6.9207,-6.9233,-6.9281,-6.9315,-6.9342,-6.9328,-6.8875,0,0,0,0,0,-6.8247,-6.8375,-6.845,-6.8635,-6.8678,-6.8715,-6.8787,-6.8784,-6.887,-6.8904,-6.8957,-6.904,-6.916,-6.924,-6.9353,-6.9578,-6.9597,-6.9679,-6.9706,-6.9728,-6.9751,-6.9873,-6.9911,-6.9511,-6.9511,-6.9511,0,0,-6.8346,-6.8413,-6.8494,-6.8656,-6.8721,-6.8853,-6.8745,-6.8888,-6.8986,-6.8925,-6.9107,-6.9148,-6.9241,-6.9449,-6.9542,-6.949,-6.9865,-6.975,-6.9767,-6.9778,-6.9895,-6.9933,-6.9966,-6.9523,-6.9521,-6.9519,0,0,-6.8594,-6.8658,-6.882,-6.8887,-6.8987,-6.9011,-6.905,-6.9139,-6.9166,-6.9348,-6.9306,-6.942,-6.9627,-6.9696,-6.9757,-7.0033,-6.9994,-7.0069,-7.0211,-7.033,-7.0362,-7.039,-7.0489,-7.0525,-7.0091,-7.0092,-7.0092,0,-6.8704,-6.8903,-6.8906,-6.9054,-6.9127,-6.908,-6.9244,-6.9308,-6.9439,-6.949,-6.9429,-6.9689,-6.9748,-6.9972,-7.0039,-7.009,-7.0134,-7.0059,-7.0357,-7.0386,-7.0412,-7.0507,-7.0544,-7.01,-7.0099,-7.0099,-7.0098,0,-6.9034,-6.9172,-6.929,-6.9422,-6.9507,-6.9662,-6.9687,-6.9773,-6.9763,-6.9792,-6.9978,-7.0048,-7.0176,-7.0228,-7.0217,-7.0451,-7.0415,-7.0356,-7.0248,-7.0458,-7.0548,-7.0584,-7.0113,-7.011,-7.0107,-7.0105,0,0,-6.9351,-6.9483,-6.9526,-6.9586,-6.9693,-6.9799,-6.9951,-7.0079,-7.0153,-7.0245,-7.0372,-7.0549,-7.0496,-7.0566,-7.0563,-7.0668,-7.0883,-7.0596,-7.0598,-7.0649,-7.1146,-7.1191,-7.1233,-7.0858,-7.0864,-7.087,-7.1138,0,-6.9609,-6.9879,-6.9887,-7.0133,-7.0261,-7.0219,-7.0351,-7.043,-7.0462,-7.0573,-7.0606,-7.0733,-7.0652,-7.0695,-7.0797,-7.0836,-7.0983,-7.0816,-7.0976,-7.0982,-7.0956,-7.1279,-7.1327,-7.1577,-7.1173,-7.1179,-7.1183,0,-6.9946,-7.0052,-7.0312,-7.0403,-7.0456,-7.0576,-7.0694,-7.0802,-7.089,-7.0905,-7.0985,-7.0967,-7.112,-7.1006,-7.1218,-7.1104,-7.1169,-7.1199,-7.1208,-7.1225,-7.1097,-7.1306,-7.1657,-7.1695,-7.1238,-7.1234,-7.123,0,-7.0154,-7.0361,-7.0544,-7.0595,-7.0705,-7.079,-7.0839,-7.0921,-7.0997,-7.1099,-7.1149,-7.1267,-7.1332,-7.1422,-7.1436,-7.1351,-7.1649,-7.1535,-7.1666,-7.1666,-7.1732,-7.1728,-7.2101,-7.1772,-7.1771,-7.177,-7.1769,0,-7.0442,-7.0604,-7.0639,-7.0752,-7.0931,-7.0937,-7.1113,-7.1155,-7.1229,-7.1348,-7.1316,-7.1428,-7.1438,-7.1553,-7.1564,-7.1739,-7.1767,-7.1783,-7.1785,-7.1788,-7.1786,-7.1832,-7.1816,-7.178,-7.1778,-7.1776,-7.1774,0,-7.0705,-7.0735,-7.0932,-7.102,-7.1046,-7.1174,-7.1249,-7.1356,-7.1384,-7.1535,-7.1571,-7.1615,-7.1748,-7.177,-7.1926,-7.1933,-7.2143,-7.2125,-7.2115,-7.2113,-7.2243,-7.2232,-7.266,-7.2717,-7.2349,-7.2352,-7.2355,0,-7.0888,-7.1012,-7.1114,-7.1193,-7.1247,-7.1374,-7.1453,-7.1463,-7.1546,-7.1657,-7.1751,-7.1881,-7.1987,-7.2202,-7.2247,-7.2366,-7.2352,-7.2494,-7.237,-7.2369,-7.2356,-7.235,-7.2363,-7.2518,-7.2522,-7.2525,-7.2528,0,-7.1211,-7.122,-7.1336,-7.1459,-7.1554,-7.165,-7.174,-7.1806,-7.1827,-7.1922,-7.206,-7.2142,-7.2303,-7.2434,-7.2553,-7.26,-7.2569,-7.2567,-7.2604,-7.2609,-7.2598,-7.2608,-7.2182,-7.2557,-7.2554,-7.2552,-7.255,-7.2549,-7.1441,-7.1549,-7.1639,-7.177,-7.1839,-7.1925,-7.2031,-7.2073,-7.2189,-7.2323,-7.2321,-7.2472,-7.2557,-7.2714,-7.277,-7.2888,-7.2842,-7.2895,-7.2908,-7.2922,-7.2936,-7.2578,-7.2909,-7.2908,-7.2907,-7.2907,-7.2906,0,-7.1763,-7.1819,-7.1939,-7.2069,-7.2171,-7.2134,-7.2232,-7.232,-7.2455,-7.2538,-7.2644,-7.2802,-7.2929,-7.2984,-7.3108,-7.3191,-7.318,-7.3223,-7.3218,-7.323,-7.2969,-7.2925,-7.3231,-7.3231,-7.3231,-7.3231,-7.3231,-7.3231,-7.1944,-7.2126,-7.2146,-7.2362,-7.2416,-7.2567,-7.2626,-7.2705,-7.2772,-7.2951,-7.3057,-7.3093,-7.3165,-7.3294,-7.3408,-7.3421,-7.3469,-7.352,-7.3526,-7.3281,-7.3248,-7.3217,-7.3176,-7.353,-7.353,-7.3778,-7.378,-7.3782]}]]